Previsão horária em Abramiha

Hoje, 18 Maio, Terça-feira

Tempo Temperatura Precipitação Vento Pressão Humidade
00:00 +15°C° 0 mm 4 m/s 743 mmHg 90%
01:00 +15°C° 0 mm 4 m/s 743 mmHg 93%
02:00 +16°C° 0 mm 3 m/s 742 mmHg 96%
03:00 +17°C° 0 mm 3 m/s 742 mmHg 94%
04:00 +17°C° 0 mm 3 m/s 742 mmHg 92%
05:00 +18°C° 0 mm 4 m/s 742 mmHg 90%
06:00 +19°C° 0 mm 4 m/s 742 mmHg 82%
07:00 +21°C° 0 mm 4 m/s 742 mmHg 73%
08:00 +23°C° 0 mm 5 m/s 742 mmHg 65%
09:00 +25°C° 0 mm 5 m/s 742 mmHg 59%
10:00 +26°C° 0 mm 5 m/s 742 mmHg 53%
11:00 +28°C° 0 mm 6 m/s 742 mmHg 47%
12:00 +28°C° 0 mm 6 m/s 742 mmHg 46%
13:00 +28°C° 0 mm 6 m/s 742 mmHg 46%
14:00 +29°C° 0 mm 6 m/s 742 mmHg 46%
15:00 +28°C° 0 mm 6 m/s 742 mmHg 48%
16:00 +27°C° 0 mm 5 m/s 742 mmHg 50%
17:00 +26°C° 0 mm 5 m/s 742 mmHg 52%
18:00 +25°C° 0 mm 5 m/s 741 mmHg 56%
19:00 +22°C° 0 mm 5 m/s 741 mmHg 60%
20:00 +21°C° 0 mm 5 m/s 741 mmHg 64%
21:00 +20°C° 0 mm 5 m/s 741 mmHg 66%
22:00 +20°C° 0 mm 5 m/s 741 mmHg 68%
23:00 +19°C° 0 mm 5 m/s 741 mmHg 70%

Amanhã, 19 Maio, Quarta-feira

Tempo Temperatura Precipitação Vento Pressão Humidade
00:00 +18°C° 0 mm 4 m/s 741 mmHg 74%
01:00 +17°C° 0 mm 4 m/s 741 mmHg 78%
02:00 +17°C° 0 mm 3 m/s 741 mmHg 82%
03:00 +17°C° 0 mm 4 m/s 741 mmHg 81%
04:00 +17°C° 0 mm 4 m/s 741 mmHg 80%
05:00 +17°C° 0 mm 4 m/s 741 mmHg 80%
06:00 +19°C° 0 mm 4 m/s 741 mmHg 75%
07:00 +20°C° 0 mm 5 m/s 741 mmHg 69%
08:00 +22°C° 0 mm 5 m/s 741 mmHg 64%
09:00 +23°C° 0 mm 6 m/s 741 mmHg 60%
10:00 +24°C° 0 mm 6 m/s 741 mmHg 57%
11:00 +26°C° 0 mm 6 m/s 741 mmHg 53%
12:00 +26°C° 0.2 mm 6 m/s 741 mmHg 52%
13:00 +26°C° 0.2 mm 6 m/s 741 mmHg 51%
14:00 +27°C° 0.2 mm 5 m/s 741 mmHg 51%
15:00 +26°C° 0.1 mm 5 m/s 741 mmHg 54%
16:00 +25°C° 0.1 mm 5 m/s 741 mmHg 57%
17:00 +25°C° 0.1 mm 4 m/s 741 mmHg 60%
18:00 +22°C° 0.2 mm 3 m/s 741 mmHg 68%
19:00 +20°C° 0.2 mm 3 m/s 741 mmHg 76%
20:00 +18°C° 0.2 mm 2 m/s 741 mmHg 84%
21:00 +17°C° 0.2 mm 2 m/s 741 mmHg 87%
22:00 +17°C° 0.2 mm 2 m/s 741 mmHg 89%
23:00 +16°C° 0.2 mm 2 m/s 741 mmHg 92%

Depois de amanhã, 20 Maio, Quinta-feira

Tempo Temperatura Precipitação Vento Pressão Humidade
00:00 +16°C° 0.5 mm 2 m/s 740 mmHg 93%
01:00 +16°C° 0.5 mm 3 m/s 740 mmHg 95%
02:00 +15°C° 0.5 mm 4 m/s 740 mmHg 96%
03:00 +15°C° 0.7 mm 4 m/s 740 mmHg 95%
04:00 +15°C° 0.7 mm 4 m/s 740 mmHg 93%
05:00 +17°C° 0.7 mm 4 m/s 740 mmHg 92%
06:00 +18°C° 0 mm 4 m/s 740 mmHg 89%
07:00 +19°C° 0 mm 4 m/s 739 mmHg 87%
08:00 +20°C° 0 mm 4 m/s 739 mmHg 84%
09:00 +20°C° 0.4 mm 5 m/s 739 mmHg 82%
10:00 +21°C° 0.4 mm 5 m/s 739 mmHg 80%
11:00 +21°C° 0.4 mm 5 m/s 738 mmHg 78%
12:00 +21°C° 0.8 mm 6 m/s 738 mmHg 75%
13:00 +21°C° 0.8 mm 6 m/s 738 mmHg 71%
14:00 +21°C° 0.8 mm 6 m/s 738 mmHg 68%
15:00 +20°C° 0 mm 6 m/s 738 mmHg 67%
16:00 +20°C° 0 mm 6 m/s 738 mmHg 66%
17:00 +20°C° 0 mm 5 m/s 738 mmHg 64%
18:00 +17°C° 0 mm 5 m/s 738 mmHg 68%
19:00 +16°C° 0 mm 5 m/s 738 mmHg 72%
20:00 +15°C° 0 mm 5 m/s 738 mmHg 76%
21:00 +14°C° 0.1 mm 5 m/s 737 mmHg 79%
22:00 +14°C° 0.1 mm 5 m/s 737 mmHg 82%
23:00 +13°C° 0.1 mm 5 m/s 737 mmHg 85%

21 Maio, Sexta-feira

Tempo Temperatura Precipitação Vento Pressão Humidade
00:00 +12°C° 0 mm 5 m/s 737 mmHg 86%
01:00 +12°C° 0 mm 5 m/s 737 mmHg 87%
02:00 +10°C° 0 mm 5 m/s 737 mmHg 88%
03:00 +11°C° 0 mm 4 m/s 738 mmHg 88%
04:00 +11°C° 0 mm 4 m/s 738 mmHg 88%
05:00 +11°C° 0 mm 4 m/s 738 mmHg 88%
06:00 +11°C° 0.1 mm 4 m/s 739 mmHg 89%
07:00 +10°C° 0.1 mm 3 m/s 739 mmHg 89%
08:00 +10°C° 0.1 mm 3 m/s 740 mmHg 90%
09:00 +10°C° 0.5 mm 4 m/s 741 mmHg 89%
10:00 +10°C° 0.5 mm 4 m/s 741 mmHg 89%
11:00 +11°C° 0.5 mm 4 m/s 742 mmHg 88%
12:00 +12°C° 0.1 mm 4 m/s 742 mmHg 76%
13:00 +14°C° 0.1 mm 4 m/s 743 mmHg 65%
14:00 +17°C° 0.1 mm 4 m/s 743 mmHg 53%
15:00 +17°C° 0 mm 4 m/s 743 mmHg 52%
16:00 +17°C° 0 mm 3 m/s 743 mmHg 50%
17:00 +18°C° 0 mm 3 m/s 744 mmHg 49%
18:00 +16°C° 0 mm 3 m/s 744 mmHg 57%
19:00 +14°C° 0 mm 2 m/s 745 mmHg 64%
20:00 +12°C° 0 mm 2 m/s 745 mmHg 72%
21:00 +10°C° 0 mm 2 m/s 745 mmHg 73%
22:00 +10°C° 0 mm 2 m/s 746 mmHg 74%
23:00 +9°C° 0 mm 2 m/s 746 mmHg 75%

22 Maio, Sábado

Tempo Temperatura Precipitação Vento Pressão Humidade
00:00 +8°C° 0 mm 2 m/s 746 mmHg 78%
01:00 +8°C° 0 mm 2 m/s 746 mmHg 80%
02:00 +7°C° 0 mm 2 m/s 747 mmHg 83%
03:00 +9°C° 0 mm 1 m/s 747 mmHg 81%
04:00 +9°C° 0 mm 1 m/s 747 mmHg 80%
05:00 +10°C° 0 mm 1 m/s 748 mmHg 78%
06:00 +12°C° 0 mm 1 m/s 748 mmHg 70%
07:00 +13°C° 0 mm 1 m/s 748 mmHg 62%
08:00 +15°C° 0 mm 1 m/s 748 mmHg 53%
09:00 +16°C° 0 mm 1 m/s 748 mmHg 50%
10:00 +17°C° 0 mm 2 m/s 748 mmHg 46%
11:00 +18°C° 0 mm 2 m/s 748 mmHg 43%
12:00 +19°C° 0 mm 2 m/s 747 mmHg 41%
13:00 +19°C° 0 mm 2 m/s 747 mmHg 40%
14:00 +20°C° 0 mm 2 m/s 747 mmHg 39%
15:00 +19°C° 0 mm 2 m/s 747 mmHg 42%
16:00 +19°C° 0 mm 2 m/s 747 mmHg 46%
17:00 +19°C° 0 mm 2 m/s 747 mmHg 50%
18:00 +17°C° 0 mm 2 m/s 747 mmHg 57%
19:00 +15°C° 0 mm 2 m/s 747 mmHg 64%
20:00 +13°C° 0 mm 2 m/s 747 mmHg 70%
21:00 +12°C° 0 mm 2 m/s 747 mmHg 71%
22:00 +10°C° 0 mm 2 m/s 747 mmHg 72%
23:00 +10°C° 0 mm 2 m/s 748 mmHg 73%

23 Maio, Domingo

Tempo Temperatura Precipitação Vento Pressão Humidade
00:00 +9°C° 0 mm 2 m/s 747 mmHg 76%
01:00 +9°C° 0 mm 2 m/s 747 mmHg 79%
02:00 +9°C° 0 mm 2 m/s 747 mmHg 82%
03:00 +10°C° 0 mm 3 m/s 747 mmHg 83%
04:00 +10°C° 0 mm 3 m/s 747 mmHg 85%
05:00 +11°C° 0 mm 3 m/s 747 mmHg 86%
06:00 +13°C° 0 mm 4 m/s 746 mmHg 79%
07:00 +14°C° 0 mm 4 m/s 746 mmHg 72%
08:00 +16°C° 0 mm 5 m/s 745 mmHg 65%
09:00 +16°C° 0 mm 5 m/s 745 mmHg 61%
10:00 +17°C° 0 mm 5 m/s 745 mmHg 56%
11:00 +17°C° 0 mm 5 m/s 744 mmHg 51%
12:00 +19°C° 0 mm 5 m/s 743 mmHg 54%
13:00 +20°C° 0 mm 5 m/s 743 mmHg 56%
14:00 +20°C° 0 mm 5 m/s 742 mmHg 59%
15:00 +20°C° 0 mm 5 m/s 741 mmHg 63%
16:00 +19°C° 0 mm 5 m/s 741 mmHg 66%
17:00 +17°C° 0 mm 5 m/s 741 mmHg 70%
18:00 +17°C° 0.4 mm 5 m/s 740 mmHg 76%
19:00 +16°C° 0.4 mm 5 m/s 740 mmHg 82%
20:00 +15°C° 0.4 mm 6 m/s 740 mmHg 89%
21:00 +14°C° 0.1 mm 5 m/s 740 mmHg 90%
22:00 +12°C° 0.1 mm 5 m/s 741 mmHg 91%
23:00 +10°C° 0.1 mm 5 m/s 741 mmHg 92%
Mostrar mais

Necessitamos do seu Consentimento

A Meteoprog e os seus Fornecedores de Serviços podem armazenar e aceder a dados pessoais como cookies, identificadores do dispositivo ou outras tecnologias semelhantes existentes no seu dispositivo e processar estes dados para personalizar conteúdos e anúncios, assim como funcionalidades nas redes sociais e análise de tráfego.

  • Armazenar e/ou aceder a informações no seu dispositivo

    Os cookies, identificadores do dispositivo ou outras informações podem ser armazenados ou acedidos no seu dispositivo, para os fins acima indicados.

  • Anúncios e conteúdos personalizados, medição de anúncios e conteúdos, dados sobre o público-alvo e desenvolvimento de produtos

    Os anúncios e os conteúdos podem ser personalizados com base num perfil. Podem ser adicionados dados adicionais para uma maior personalização dos anúncios e dos conteúdos. A eficácia dos anúncios e dos conteúdos pode ser medida. Podem ser obtidas informações sobre o público que visualizou os anúncios e os conteúdos. Estes dados podem ser usados para desenvolver ou melhorar sistemas, softwares ou a experiência do utilizador.

Ao clicar em "Eu concordo”, permitirá o uso de cookies, identificadores do dispositivo e web beacons mencionados ou outras tecnologias semelhantes. As configurações do navegador do seu dispositivo podem ser alteradas.

Para certos fins, podem ser invocados interesses legítimos ao invés de consentimento. Pode ler mais informação sobre este assunto na nossa Política de Privacidade e Cookies.